SICH-1
1 23657U 95046A   06207.72733902  .00000100  00000-0  97171-5 0 08108
2 23657 082.5274 021.0186 0022541 231.4671 128.4509 14.81374310587842
NOAA-15
1 25338U 98030A   06207.91754539 -.00000097  00000-0 -23358-4 0 05954
2 25338 098.5162 209.0324 0009624 257.6009 102.4094 14.24593884426374
RESURS
1 25394U 98043A   06207.77023216  .00000006  00000-0  20848-4 0 04380
2 25394 098.4916 269.3218 0002440 061.9230 298.2195 14.24107168418030
FENGYUN1
1 25730U 99025A   06207.59678985  .00000231  00000-0  14958-3 0  7842
2 25730 098.6264 198.6556 0015100 031.3342 328.8721 14.11814804371573
OKEAN-0
1 25860U 99039A   06208.61901744  .00000055  00000-0  15631-4 0  8099
2 25860 097.7324 221.0671 0001433 042.6186 317.5129 14.73378081377706
NOAA-16
1 26536U 00055A   06207.95929528  .00000336  00000-0  20701-3 0 09711
2 26536 099.0686 175.0510 0010883 012.7556 347.3888 14.12358467301193
NOAA-17
1 27453U 02032A   06208.36838097  .00000207  00000-0  10930-3 0  9892
2 27453 098.6200 279.7976 0011172 322.3008 037.7393 14.23796878212490
NOAA-18
1 28654U 05018A   06208.34379464 -.00000025  00000-0  10206-4 0  5688
2 28654 098.7888 150.7648 0015131 105.7601 254.5261 14.10975904 61043
HUBBLE
1 20580U 90037B   06207.94912608  .00000312  00000-0  11437-4 0 06665
2 20580 028.4668 150.6818 0003805 241.0881 118.9326 15.00067609691077
UARS
1 21701U 91063B   06208.65265926  .00002717  00000-0  58076-4 0  8285
2 21701 056.9789 277.9803 0096917 288.2499 070.8044 15.44028823815551
PO-34
1 25520U 98064B   06207.95941699  .00000433  00000-0  11724-4 0 05533
2 25520 028.4581 125.0644 0005092 313.5866 046.4304 15.16752584428092
ISS
1 25544U 98067A   06208.95844907  .00013492  00000-0  88450-4 0  3871
2 25544 051.6353 337.4240 0008520 123.7092 015.1943 15.76095643439596
OO-38
1 26063U 00004C   06207.73597906 -.00000019  00000-0  13897-4 0  6767
2 26063 100.1875 145.8968 0037006 356.6728 003.4203 14.35771991340348
NO-45
1 26932U 01043D   06208.66414999 -.00000064  00000-0  75116-5 0  3714
2 26932 067.0555 263.1323 0008321 246.7905 113.2320 14.29530361251755
UWE-1
1 28892U 05043C   06208.71771910  .00000073  00000-0  25138-4 0  5113
2 28892 098.1593 106.2723 0018512 046.9484 313.3276 14.59376494 39884
CO-58
1 28895U 05043F   06207.88469676  .00000093  00000-0  29360-4 0  4950
2 28895 098.1662 105.5485 0018950 050.2858 310.0077 14.59427774 39645
NCUBE2
1 28897U 05043H   06206.34958902  .00000097  00000-0  30076-4 0   975
2 28897 098.1609 104.0226 0018654 055.9535 304.3426 14.59583221 31691
